STARLINK-1047, 44752

Orbit data source: Space-Track

STARLINK-1047, 44752 is a payload satellite owned by SpaceX/Seattle (US) in LEO that was launched on Mon, 11 Nov 2019 UTC via an FALCON 9 launch vehicle from the Air Force Eastern Test Range (AFETR). Payload-class satellites include a variety of spacecraft equipped with specific instruments for various scientific and technological missions. These include communications satellites like Starlink; space stations such as the ISS; scientific satellites like the Hubble; Earth observation satellites from companies like Planet Labs, Umbra, and HawkEye 360; GPS; miniature CubeSats for education and research; and military/defense satellites.

Loading next visibility...
Identifier
44752, 2019-074AR
Orbit
LEO
Country
Flag of USUS
Related business
Manufacturer
SpaceX/Seattle
Mission
Partially operational Commercial Communications
Bus & Motor
STARLINK, Unknown motor
Mass
260 kg wet, ~248 kg dry
Launch date (UTC)
2019-11-11 (6 years ago)
Launch vehicle
FALCON 9
Launch site
Air Force Eastern Test Range (AFETR)
Object type
Payload
Rocket body
Debris
Shape & HBR
Box + 1 Pan, 10.1 m
Radar Cross Section
13.562 m², Large (>1 m²)

Expand to show TLE details & history
Last TLE update: 16 hours ago

TLE from 16 hours ago
0 STARLINK-1047
1 44752U 19074AR  26072.14809265  .00009680  00000-0  31374-3 0  9999
2 44752  53.0700 129.8491 0001952 218.9229 141.1632 15.32668632349874
Epoch: 2026-03-13T03:33Z
TLE epoch observation values (Epoch: 2026-03-13T03:33:15.204Z)
Latitude
0.00001°
Longitude
-94.25204°
Altitude
469.786 km
Speed
7.632 km/s
True Right ascension
08h 39m 23s
True Declination
0° 00' 00"
Sunlit
Object was in full shadow at epoch
Visualization orbit readout
Latitude
Unknown
Longitude
Unknown
Altitude
Unknown
Speed
Unknown
Apparent Right ascension
Unknown
Apparent Declination
Unknown
Sunlit
N/A
Visualization observer readout
Local Sidereal Time
23:53:39
Azimuth
Unknown
Elevation
Unknown
Doppler factor
Unknown
Orbital elements
Apogee altitude
469.462 km
Perigee altitude
466.789 km
Semi-major axis
6,846.262 km
Eccentricity
0.0002
Inclination
53.07°
RAAN
129.8491°
Arg. of periapsis
218.9229°
True anomaly
141.17722°
Mean anomaly
141.1632°
Eccentric anomaly
141.17021°
Mean motion
3.83145 °/min
Orbital period
93.96 mins
BSTAR
0.00031374
Loading maneuver chart data...
Computing Atmospheric mass density...

Documentation

Showing up to 5 results
|